[[{"header":{"parameterUnit":"m.s-1","parameterCategory":1,"la1":30.2991,"la2":30.254,"lo1":-89.0895,"lo2":-89.0444,"dy":0.0017,"dx":0.0017,"nx":28,"ny":28,"refTime":"2025-11-26T09:00:00:Z","depth":0,"parameterNumber":2,"parameterNumberName":"U-component_of_WINDS"},"data":[0,0,0,0,0,0,0,0,0,0,0,0,0,0,0,0,0,0,0,0,0,0,0,0,0,0,0,0,0,0,0,0,0,0,0,0,0,0,0,0,0,0,0,0,0,0,0,0,0,0,0,0,0,0,0,0,0,0,1.4331,1.4332,0,1.4439,1.444,1.4441,1.4443,1.4442,1.444,1.4439,1.4553,1.4557,1.4561,0,0,0,0,0,0,0,0,0,0,0,0,0,1.4131,1.4135,1.4331,1.4332,1.4333,1.4439,1.444,1.4442,1.4443,1.4442,1.444,1.4438,1.4552,1.4557,1.4562,0,0,0,0,0,0,0,0,0,0,0,0,0,1.4226,1.4136,1.4331,1.4347,1.4349,1.4438,1.444,1.4442,1.4444,1.4441,1.4439,1.4438,1.455,1.4556,1.4563,1.4643,0,0,1.4582,1.4585,0,0,0,0,0,0,0,0,1.4221,1.4234,1.4343,1.4346,1.4349,1.4425,1.4412,1.451,1.4444,1.4408,1.4439,1.4437,1.4512,1.4522,1.4547,1.4649,1.4654,1.4583,1.4587,1.459,1.4591,0,0,0,0,0,0,0,1.4214,1.4229,1.4374,1.4345,1.4348,1.4351,1.4362,1.443,1.447,1.4411,1.4411,1.4424,1.4514,1.454,1.4549,1.4655,1.4583,1.4588,1.4592,1.4595,1.4834,1.4836,0,0,0,0,0,0,1.4204,1.4224,1.437,1.4377,1.4278,1.4356,1.4368,1.4403,1.447,1.4478,1.4425,1.4424,1.453,1.4542,1.4553,1.4655,1.4589,1.4596,1.4599,1.4831,1.4834,1.4837,0,0,0,0,0,0,1.42,1.4217,1.4366,1.43,1.432,1.4361,1.44,1.4406,1.4433,1.4481,1.4488,1.4445,1.4529,1.4544,1.4622,1.4659,1.4598,1.4604,1.4828,1.4832,1.4835,1.4858,0,0,0,0,0,0,1.4194,1.4215,1.4245,1.4301,1.4323,1.4431,1.4402,1.441,1.4444,1.4442,1.4501,1.4509,1.4529,1.4612,1.4628,1.4667,1.4609,1.4825,1.483,1.4834,1.4854,1.4862,1.4868,0,0,0,0,0,1.4187,1.4247,1.4247,1.4264,1.4361,1.4433,1.4446,1.4466,1.4446,1.4478,1.4509,1.4507,1.4652,1.462,1.4638,1.4679,1.4823,1.4829,1.4834,1.4851,1.486,1.4868,0,0,0,0,0,0,1.4195,1.4254,1.4255,1.4334,1.4379,1.4433,1.4473,1.4475,1.4526,1.4523,1.4547,1.4561,1.4638,1.4666,1.463,1.4763,1.4735,1.4745,1.4742,1.4751,1.4759,1.4751,1.4615,0,0,0,0,0,1.4206,1.4258,1.4308,1.4373,1.4396,1.4431,1.4463,1.4475,1.4522,1.4541,1.4577,1.4624,1.4681,1.4718,1.4772,1.4858,1.4873,1.4895,1.4903,1.4908,1.4917,1.4968,1.498,1.4855,1.4855,1.4855,0,0,1.4229,1.4268,1.43,1.4376,1.4412,1.4467,1.4446,1.4505,1.4547,1.455,1.4626,1.4655,1.4709,1.4792,1.483,1.4818,1.4955,1.4916,1.492,1.4925,1.4975,1.4987,1.4997,1.4859,1.4858,1.4857,0,0,1.43,1.4334,1.4394,1.443,1.4484,1.4508,1.4522,1.4577,1.4596,1.4672,1.4677,1.4728,1.4824,1.4864,1.4896,1.4986,1.4987,1.5003,1.5041,1.5091,1.5101,1.5109,1.5144,1.5156,1.5011,1.5011,1.5011,0,1.4323,1.4405,1.4425,1.4485,1.4519,1.4524,1.4587,1.4622,1.4691,1.4716,1.4701,1.4823,1.486,1.4954,1.4976,1.5001,1.5021,1.4996,1.5097,1.5106,1.5115,1.5148,1.5161,1.5012,1.5012,1.5012,1.5012,0,1.4432,1.4489,1.4531,1.4598,1.4638,1.4698,1.4729,1.4768,1.4777,1.4803,1.4882,1.4927,1.4992,1.5015,1.5024,1.5111,1.5102,1.5092,1.5065,1.5128,1.516,1.5173,1.5015,1.5014,1.5014,1.5013,0,0,1.451,1.4589,1.4604,1.4636,1.4697,1.4743,1.4805,1.4868,1.4902,1.495,1.5005,1.5087,1.5079,1.5116,1.5131,1.5174,1.5246,1.5159,1.5161,1.5176,1.5348,1.5357,1.5371,1.5247,1.5249,1.5251,1.5344,0,1.459,1.4699,1.472,1.4817,1.4872,1.4878,1.4933,1.4978,1.5005,1.5057,1.5086,1.5145,1.5128,1.5151,1.5194,1.5228,1.5281,1.5221,1.53,1.5303,1.5288,1.5387,1.5396,1.5482,1.5357,1.5359,1.536,0,1.4697,1.4748,1.485,1.4907,1.4931,1.4979,1.5041,1.5089,1.5142,1.5158,1.5201,1.5211,1.5279,1.5248,1.5344,1.5303,1.5337,1.5358,1.5362,1.5372,1.5336,1.5402,1.5509,1.5523,1.5379,1.5378,1.5377,0,1.4747,1.4842,1.4916,1.4943,1.501,1.5045,1.5075,1.5125,1.5162,1.5216,1.5242,1.5303,1.5337,1.5385,1.5413,1.5387,1.5508,1.5478,1.5526,1.5525,1.5552,1.555,1.5668,1.557,1.557,1.557,1.5569,0,1.4835,1.4898,1.494,1.4985,1.5057,1.5081,1.5152,1.5182,1.5227,1.528,1.529,1.534,1.5373,1.5429,1.5451,1.5529,1.5543,1.556,1.5566,1.5561,1.5559,1.5584,1.558,1.5573,1.5572,1.5572,1.5571,0,1.4904,1.4934,1.5015,1.5073,1.5089,1.514,1.519,1.5236,1.5263,1.5331,1.5348,1.5391,1.5457,1.549,1.5572,1.5587,1.5676,1.5676,1.5658,1.5661,1.5707,1.5703,1.5848,1.5869,1.5755,1.5756,1.5756,0,1.4958,1.5007,1.507,1.5106,1.5137,1.5195,1.5234,1.526,1.5301,1.5366,1.5405,1.5471,1.5526,1.5633,1.5673,1.5737,1.574,1.5787,1.575,1.5744,1.5744,1.5742,1.5748,1.5793,1.5795,1.5795,1.5796,0,1.5054,1.5067,1.5121,1.5183,1.5228,1.5278,1.5327,1.5356,1.5391,1.5437,1.5504,1.5547,1.5632,1.5699,1.5767,1.58,1.5806,1.5807,1.5822,1.5818,1.5807,1.5816,1.5678,1.5804,1.5803,1.5803,1.5802,1.5802,1.5119,1.5163,1.5216,1.5277,1.5317,1.5363,1.541,1.5443,1.55,1.557,1.5583,1.5656,1.571,1.5801,1.5837,1.5896,1.5886,1.5907,1.5912,1.5918,1.5921,1.5796,1.5908,1.5908,1.5908,1.5908,1.5907,0,1.5217,1.5251,1.5307,1.5376,1.5425,1.5424,1.5479,1.5521,1.5585,1.5634,1.5689,1.5769,1.5835,1.588,1.5948,1.5987,1.5991,1.6004,1.6002,1.6011,1.5925,1.5907,1.5999,1.5999,1.5999,1.5999,1.5999,1.5999,1.5273,1.535,1.537,1.5467,1.5501,1.5572,1.5604,1.5648,1.5688,1.5776,1.5831,1.586,1.5909,1.5981,1.6043,1.6055,1.608,1.6094,1.6106,1.6026,1.6016,1.6007,1.599,1.6098,1.6099,1.6187,1.6188,1.6188]},{"header":{"parameterUnit":"m.s-1","parameterCategory":1,"la1":30.2991,"la2":30.254,"lo1":-89.0895,"lo2":-89.0444,"dy":0.0017,"dx":0.0017,"nx":28,"ny":28,"refTime":"2025-11-26T09:00:00:Z","depth":0,"parameterNumber":3,"parameterNumberName":"V-component_of_WINDS"},"data":[0,0,0,0,0,0,0,0,0,0,0,0,0,0,0,0,0,0,0,0,0,0,0,0,0,0,0,0,0,0,0,0,0,0,0,0,0,0,0,0,0,0,0,0,0,0,0,0,0,0,0,0,0,0,0,0,0,0,-2.6104,-2.6103,0,-2.6029,-2.6028,-2.6027,-2.5988,-2.5988,-2.5988,-2.5988,-2.5907,-2.5904,-2.5902,0,0,0,0,0,0,0,0,0,0,0,0,0,-2.6209,-2.6207,-2.6104,-2.6103,-2.6102,-2.6029,-2.6028,-2.6027,-2.5988,-2.5988,-2.5988,-2.5988,-2.5907,-2.5905,-2.5902,0,0,0,0,0,0,0,0,0,0,0,0,0,-2.6152,-2.6207,-2.6104,-2.6074,-2.6071,-2.6029,-2.6028,-2.6027,-2.5988,-2.5988,-2.5988,-2.5988,-2.5908,-2.5905,-2.5902,-2.5883,0,0,-2.5892,-2.5891,0,0,0,0,0,0,0,0,-2.6155,-2.6148,-2.608,-2.6076,-2.6072,-2.6018,-2.6035,-2.5978,-2.5988,-2.602,-2.5988,-2.5988,-2.5943,-2.5937,-2.5923,-2.5879,-2.5876,-2.5892,-2.589,-2.5888,-2.5887,0,0,0,0,0,0,0,-2.6159,-2.6151,-2.6074,-2.6079,-2.6074,-2.6063,-2.6055,-2.6024,-2.5983,-2.6017,-2.6014,-2.6006,-2.5941,-2.5926,-2.5921,-2.5874,-2.5892,-2.5889,-2.5887,-2.5886,-2.581,-2.5809,0,0,0,0,0,0,-2.6168,-2.6154,-2.6077,-2.6072,-2.6115,-2.6061,-2.6052,-2.6036,-2.5983,-2.5975,-2.6006,-2.6004,-2.5932,-2.5925,-2.5918,-2.5892,-2.5888,-2.5885,-2.5884,-2.581,-2.581,-2.5809,0,0,0,0,0,0,-2.6171,-2.6162,-2.608,-2.6112,-2.6101,-2.6059,-2.6041,-2.6034,-2.6019,-2.5975,-2.5966,-2.5999,-2.5932,-2.5922,-2.5892,-2.5888,-2.5884,-2.5881,-2.581,-2.581,-2.5809,-2.5839,0,0,0,0,0,0,-2.6174,-2.6163,-2.6157,-2.6113,-2.61,-2.6057,-2.6041,-2.6033,-2.6014,-2.6011,-2.5966,-2.5958,-2.5931,-2.5897,-2.5889,-2.5884,-2.5878,-2.581,-2.581,-2.581,-2.5839,-2.584,-2.5842,0,0,0,0,0,-2.6178,-2.6167,-2.6157,-2.6147,-2.6091,-2.6057,-2.6049,-2.602,-2.6014,-2.6007,-2.5978,-2.5959,-2.589,-2.5894,-2.5885,-2.5879,-2.581,-2.581,-2.581,-2.5838,-2.584,-2.5842,0,0,0,0,0,0,-2.6211,-2.6161,-2.6149,-2.6124,-2.6095,-2.605,-2.604,-2.6023,-2.5994,-2.5992,-2.5955,-2.5945,-2.5918,-2.5895,-2.59,-2.5857,-2.5848,-2.5846,-2.5873,-2.5874,-2.5876,-2.5882,-2.5876,0,0,0,0,0,-2.6215,-2.6193,-2.615,-2.6132,-2.6119,-2.6082,-2.6066,-2.6046,-2.6014,-2.6001,-2.597,-2.5938,-2.5909,-2.589,-2.5861,-2.5835,-2.5824,-2.5826,-2.5828,-2.5829,-2.5828,-2.5811,-2.5811,-2.5809,-2.5809,-2.5809,0,0,-2.6224,-2.6194,-2.6182,-2.6138,-2.6113,-2.609,-2.6072,-2.6047,-2.6029,-2.5996,-2.5966,-2.5942,-2.5904,-2.5876,-2.5861,-2.5856,-2.5826,-2.5829,-2.5831,-2.5828,-2.5811,-2.5811,-2.5811,-2.5809,-2.5809,-2.5809,0,0,-2.6227,-2.6203,-2.6185,-2.6161,-2.6124,-2.61,-2.6096,-2.6053,-2.6037,-2.6006,-2.5981,-2.5957,-2.5909,-2.5882,-2.5863,-2.5856,-2.5837,-2.5847,-2.5855,-2.584,-2.584,-2.584,-2.5836,-2.5836,-2.5846,-2.5846,-2.5846,0,-2.6242,-2.6207,-2.6178,-2.6155,-2.6136,-2.6107,-2.6087,-2.6065,-2.602,-2.6006,-2.6001,-2.5939,-2.5911,-2.5875,-2.5874,-2.5859,-2.5852,-2.5852,-2.5842,-2.5842,-2.5841,-2.5838,-2.5837,-2.5847,-2.5847,-2.5847,-2.5847,0,-2.6227,-2.6203,-2.6192,-2.6151,-2.6131,-2.611,-2.6076,-2.6058,-2.604,-2.6015,-2.5983,-2.5949,-2.5912,-2.5902,-2.5884,-2.5864,-2.5861,-2.585,-2.584,-2.5844,-2.5839,-2.5838,-2.5849,-2.5849,-2.5848,-2.5848,0,0,-2.6249,-2.6192,-2.6188,-2.6169,-2.6126,-2.6106,-2.6083,-2.6049,-2.6034,-2.6003,-2.5982,-2.5941,-2.593,-2.5908,-2.5886,-2.5872,-2.5867,-2.5861,-2.586,-2.5863,-2.5842,-2.5851,-2.585,-2.5855,-2.5855,-2.5854,-2.5845,0,-2.6246,-2.6205,-2.6177,-2.6147,-2.6123,-2.6095,-2.6074,-2.6045,-2.6022,-2.5997,-2.597,-2.5942,-2.593,-2.5916,-2.5901,-2.5871,-2.5863,-2.5872,-2.5833,-2.5832,-2.5843,-2.5848,-2.5857,-2.585,-2.5843,-2.5843,-2.5843,0,-2.6237,-2.6209,-2.6176,-2.6135,-2.6124,-2.6107,-2.6073,-2.605,-2.6015,-2.5999,-2.5974,-2.5952,-2.5924,-2.5917,-2.5878,-2.5885,-2.5868,-2.5851,-2.5849,-2.5844,-2.5838,-2.5842,-2.5847,-2.5846,-2.584,-2.584,-2.5841,0,-2.6255,-2.6209,-2.6183,-2.6168,-2.612,-2.6108,-2.6087,-2.6053,-2.6033,-2.6003,-2.5989,-2.5956,-2.5937,-2.591,-2.5879,-2.5877,-2.5842,-2.5833,-2.5826,-2.5827,-2.582,-2.5821,-2.5822,-2.581,-2.581,-2.581,-2.581,0,-2.6254,-2.6235,-2.6191,-2.6175,-2.6152,-2.612,-2.6098,-2.6074,-2.6044,-2.6022,-2.5995,-2.5974,-2.5934,-2.5908,-2.5882,-2.5853,-2.5845,-2.583,-2.5823,-2.5832,-2.5834,-2.582,-2.5819,-2.581,-2.581,-2.581,-2.581,0,-2.627,-2.624,-2.621,-2.6168,-2.6156,-2.6141,-2.6104,-2.6086,-2.6062,-2.6034,-2.6025,-2.5986,-2.5953,-2.592,-2.5875,-2.5858,-2.583,-2.5821,-2.5842,-2.5838,-2.5834,-2.5834,-2.5825,-2.5821,-2.5813,-2.5813,-2.5813,0,-2.6271,-2.6256,-2.6212,-2.6196,-2.6176,-2.6151,-2.6131,-2.6099,-2.6079,-2.6039,-2.6026,-2.5992,-2.5963,-2.5913,-2.5879,-2.5845,-2.5834,-2.5833,-2.5829,-2.5838,-2.5833,-2.5834,-2.5832,-2.5834,-2.5835,-2.5835,-2.5835,0,-2.6276,-2.6262,-2.6236,-2.6204,-2.6182,-2.6155,-2.6127,-2.6115,-2.6077,-2.6056,-2.6024,-2.6002,-2.5957,-2.5923,-2.5885,-2.5861,-2.5841,-2.5837,-2.5833,-2.5842,-2.5855,-2.5847,-2.5846,-2.5837,-2.5837,-2.5837,-2.5837,-2.5837,-2.6284,-2.6269,-2.6236,-2.6207,-2.6183,-2.6157,-2.6139,-2.6112,-2.6085,-2.6048,-2.603,-2.5997,-2.5961,-2.5908,-2.5885,-2.5858,-2.5852,-2.5847,-2.5846,-2.5845,-2.5847,-2.586,-2.5851,-2.5851,-2.5851,-2.5851,-2.5851,0,-2.6287,-2.6264,-2.6238,-2.6201,-2.6178,-2.6163,-2.6131,-2.6112,-2.6085,-2.6054,-2.6027,-2.5989,-2.5956,-2.592,-2.5884,-2.5869,-2.5859,-2.5861,-2.5861,-2.5856,-2.5855,-2.5861,-2.587,-2.587,-2.587,-2.587,-2.587,-2.587,-2.6285,-2.6259,-2.6241,-2.6202,-2.6178,-2.6148,-2.6131,-2.6106,-2.6082,-2.6042,-2.6015,-2.5992,-2.5958,-2.592,-2.5889,-2.5879,-2.5866,-2.5871,-2.5858,-2.5858,-2.5856,-2.5855,-2.586,-2.5869,-2.5869,-2.5861,-2.5861,-2.5861]}]]